Location: Ferchesar
(52.6477°N, 12.4298°E)
Time: 17:28:34
(UTC+01:00)

Vanguard 3 - Pass Details

Date: 12 December 2021
Orbit: 508 x 3260 km, 33.3° (Epoch: 22 January)

Event Time Altitude Azimuth Distance (km) Brightness Sun altitude
Rises 22:34:07 0° 172° (S) 5,663 - -55.9°
Reaches altitude 10° 22:41:53 10° 145° (SE) 5,335 - -56.6°
Maximum altitude 22:46:25 12° 128° (SE) 5,495 - -57.0°
Drops below altitude 10° 22:51:20 10° 112° (ESE) 5,906 - -57.4°
Exits shadow 23:00:52 - 88° (E) 7,124 11.8 -58.1°
Sets 23:01:30 0° 87° (E) 7,216 11.8 -58.2°
